Roda de Ter - l'Esquerda





Hora UTC 17:55
Temperatura 7.1 ºC
Humitat 65.0 %
Pressió 1034.3 hPa
Pluja 0.0 mm
Velocitat vent 3.2 km/h
Direcció vent N

Dades diàries 2022-01-25



Hora UTC (hivern +1h; estiu +2h)
Temperatura (ºC) Humitat (%) Pressió (hPa) Velocitat vent (km/h) Precipitació (mm)
Hora UTC Aire Humitat Pressió Vel. Dir. Vel. Max Dir. Intent. màx 5 min.
00:05 -3.3 88.0 1035.3 1.6 NE 1.6 0.0
00:10 -3.3 88.0 1035.3 3.2 NE 3.2 0.0
00:15 -3.3 88.0 1035.3 4.8 NE 4.8 0.0
00:20 -3.3 88.0 1035.3 3.2 NE 4.8 0.0
00:25 -3.3 88.0 1035.4 0.0 NE 3.2 0.0
00:30 -3.5 88.0 1035.3 1.6 NE 1.6 0.0
00:35 -3.4 89.0 1035.3 0.0 NE 3.2 0.0
00:40 -3.6 88.0 1035.3 1.6 NE 3.2 0.0
00:45 -3.6 89.0 1035.3 3.2 NE 3.2 0.0
00:50 -3.7 88.0 1035.3 1.6 NE 3.2 0.0
00:55 -3.9 88.0 1035.3 1.6 NE 4.8 0.0
01:00 -3.8 89.0 1035.4 3.2 NE 4.8 0.0
01:05 -3.8 89.0 1035.4 1.6 NE 4.8 0.0
01:10 -4.0 88.0 1035.4 0.0 NE 4.8 0.0
01:15 -4.0 89.0 1035.4 0.0 NE 1.6 0.0
01:20 -3.9 89.0 1035.5 0.0 NE 1.6 0.0
01:25 -4.0 89.0 1035.5 0.0 NE 1.6 0.0
01:30 -4.2 89.0 1035.5 0.0 NE 3.2 0.0
01:35 -4.2 89.0 1035.5 0.0 NE 1.6 0.0
01:40 -4.1 89.0 1035.6 0.0 NE 1.6 0.0
01:45 -4.1 89.0 1035.7 0.0 NE 1.6 0.0
01:50 -4.1 89.0 1035.6 0.0 NE 1.6 0.0
01:55 -4.3 89.0 1035.6 1.6 NE 1.6 0.0
02:00 -4.4 89.0 1035.6 1.6 NE 1.6 0.0
02:05 -4.6 89.0 1035.7 1.6 NE 1.6 0.0
02:10 -4.4 89.0 1035.7 0.0 NE 1.6 0.0
02:15 -4.3 89.0 1035.6 0.0 NE 0.0 0.0
02:20 -4.2 89.0 1035.6 0.0 NE 0.0 0.0
02:25 -4.3 89.0 1035.6 1.6 NE 1.6 0.0
02:30 -4.6 89.0 1035.7 1.6 NE 3.2 0.0
02:35 -4.7 89.0 1035.6 3.2 NE 3.2 0.0
02:40 -4.6 89.0 1035.6 0.0 NE 3.2 0.0
02:45 -4.6 89.0 1035.6 0.0 NE 1.6 0.0
02:50 -4.6 89.0 1035.7 0.0 NE 0.0 0.0
02:55 -4.6 89.0 1035.5 0.0 NE 0.0 0.0
03:00 -4.6 90.0 1035.6 0.0 NE 0.0 0.0
03:05 -4.6 90.0 1035.5 0.0 NE 0.0 0.0
03:10 -4.7 89.0 1035.6 0.0 NE 0.0 0.0
03:15 -4.9 89.0 1035.6 1.6 NE 1.6 0.0
03:20 -5.1 89.0 1035.6 1.6 NE 3.2 0.0
03:25 -5.1 90.0 1035.6 0.0 NE 3.2 0.0
03:30 -5.0 90.0 1035.6 0.0 NE 1.6 0.0
03:35 -4.9 90.0 1035.6 0.0 NE 0.0 0.0
03:40 -5.1 89.0 1035.6 0.0 NE 0.0 0.0
03:45 -5.3 89.0 1035.5 0.0 NE 0.0 0.0
03:50 -5.2 89.0 1035.6 0.0 NE 1.6 0.0
03:55 -5.3 89.0 1035.5 0.0 NE 1.6 0.0
04:00 -5.3 89.0 1035.7 0.0 NE 1.6 0.0
04:05 -5.4 89.0 1035.6 0.0 NE 1.6 0.0
04:10 -5.4 90.0 1035.6 0.0 NE 1.6 0.0
04:15 -5.2 90.0 1035.5 0.0 NE 1.6 0.0
04:20 -5.3 89.0 1035.6 1.6 NE 1.6 0.0
04:25 -5.3 90.0 1035.5 0.0 NE 1.6 0.0
04:30 -5.4 90.0 1035.5 0.0 NE 1.6 0.0
04:35 -5.3 90.0 1035.6 0.0 NE 3.2 0.0
04:40 -5.2 90.0 1035.5 0.0 NE 3.2 0.0
04:45 -5.3 90.0 1035.6 1.6 NE 3.2 0.0
04:50 -5.6 89.0 1035.6 1.6 NE 3.2 0.0
04:55 -5.6 89.0 1035.5 1.6 NE 3.2 0.0
05:00 -5.6 89.0 1035.6 1.6 NE 3.2 0.0
05:05 -5.6 89.0 1035.5 1.6 NE 3.2 0.0
05:10 -5.5 90.0 1035.6 0.0 NE 1.6 0.0
05:15 -5.6 89.0 1035.6 0.0 NE 1.6 0.0
05:20 -5.9 89.0 1035.5 1.6 NE 3.2 0.0
05:25 -6.2 89.0 1035.7 0.0 NE 3.2 0.0
05:30 -6.2 89.0 1035.7 1.6 NE 1.6 0.0
05:35 -6.2 89.0 1035.8 0.0 NE 3.2 0.0
05:40 -6.2 90.0 1035.8 0.0 NE 1.6 0.0
05:45 -6.0 90.0 1035.9 0.0 NE 0.0 0.0
05:50 -5.8 90.0 1035.9 0.0 NE 0.0 0.0
05:55 -5.8 90.0 1035.8 0.0 NE 0.0 0.0
06:00 -5.9 90.0 1035.9 0.0 NE 0.0 0.0
06:05 -5.9 89.0 1035.8 0.0 NE 1.6 0.0
06:10 -6.1 89.0 1035.9 0.0 NE 1.6 0.0
06:15 -6.1 89.0 1036.0 0.0 NE 1.6 0.0
06:20 -6.1 89.0 1036.0 0.0 NE 0.0 0.0
06:25 -6.1 90.0 1036.1 0.0 NE 0.0 0.0
06:30 -6.0 90.0 1036.1 0.0 NE 0.0 0.0
06:35 -6.1 89.0 1036.1 0.0 NE 0.0 0.0
06:40 -6.3 89.0 1036.1 0.0 NE 0.0 0.0
06:45 -6.4 89.0 1036.1 0.0 NE 0.0 0.0
06:50 -6.4 89.0 1036.2 0.0 NE 0.0 0.0
06:55 -6.3 89.0 1036.2 0.0 NE 0.0 0.0
07:00 -6.3 89.0 1036.3 0.0 NE 0.0 0.0
07:05 -6.4 89.0 1036.3 0.0 NE 0.0 0.0
07:10 -6.4 89.0 1036.2 0.0 NE 0.0 0.0
07:15 -6.4 89.0 1036.2 0.0 NE 0.0 0.0
07:20 -6.4 89.0 1036.4 0.0 NE 0.0 0.0
07:25 -6.4 89.0 1036.3 0.0 NE 0.0 0.0
07:30 -6.4 89.0 1036.3 0.0 NE 0.0 0.0
07:35 -6.6 89.0 1036.4 0.0 NE 3.2 0.0
07:40 -6.6 89.0 1036.4 1.6 NE 3.2 0.0
07:45 -6.6 89.0 1036.4 0.0 NE 3.2 0.0
07:50 -6.4 89.0 1036.5 1.6 NE 3.2 0.0
07:55 -6.5 89.0 1036.6 1.6 NE 1.6 0.0
08:00 -6.6 89.0 1036.5 0.0 NE 1.6 0.0
08:05 -6.4 90.0 1036.6 0.0 NE 1.6 0.0
08:10 -6.3 89.0 1036.5 0.0 NE 1.6 0.0
08:20 -5.8 90.0 1036.5 0.0 NE 0.0 0.0
08:25 -5.6 90.0 1036.6 0.0 NE 0.0 0.0
08:30 -5.3 90.0 1036.5 0.0 N 0.0 0.0
08:35 -5.0 90.0 1036.6 1.6 N 1.6 0.0
08:40 -4.9 90.0 1036.7 0.0 N 3.2 0.0
08:45 -4.8 90.0 1036.8 0.0 N 3.2 0.0
08:50 -4.6 90.0 1036.7 0.0 N 1.6 0.0
08:55 -4.3 90.0 1036.8 1.6 N 1.6 0.0
09:00 -4.1 90.0 1036.8 0.0 N 1.6 0.0
09:05 -3.9 90.0 1036.8 1.6 N 1.6 0.0
09:10 -3.6 90.0 1037.1 0.0 N 1.6 0.0
09:15 -3.4 91.0 1036.8 1.6 N 3.2 0.0
09:20 -3.3 90.0 1037.0 1.6 N 3.2 0.0
09:25 -3.1 91.0 1036.9 1.6 N 3.2 0.0
09:25 -2.8 91.0 1036.9 0.0 N 3.2 0.0
09:35 0.0
09:40 -2.4 91.0 1036.8 1.6 NNE 3.2 0.0
09:45 -2.1 91.0 1036.7 0.0 NNE 3.2 0.0
09:50 -1.8 90.0 1036.7 1.6 NNE 3.2 0.0
09:55 -1.6 90.0 1036.7 0.0 NNE 3.2 0.0
10:00 -1.3 90.0 1036.7 1.6 NNE 1.6 0.0
10:05 -0.6 90.0 1036.8 1.6 N 3.2 0.0
10:10 -0.6 88.0 1036.9 1.6 N 3.2 0.0
10:15 -0.2 88.0 1036.6 1.6 N 3.2 0.0
10:20 0.3 87.0 1036.6 0.0 N 3.2 0.0
10:25 0.6 86.0 1036.4 0.0 N 3.2 0.0
10:30 1.1 85.0 1036.5 3.2 N 3.2 0.0
10:35 1.4 83.0 1036.4 1.6 W 6.4 0.0
10:40 1.8 82.0 1036.4 1.6 W 6.4 0.0
10:45 1.9 80.0 1036.4 3.2 W 4.8 0.0
10:50 2.1 78.0 1036.3 3.2 W 4.8 0.0
10:55 2.4 77.0 1036.2 0.0 W 4.8 0.0
11:00 2.8 77.0 1036.2 1.6 W 3.2 0.0
11:05 3.1 75.0 1036.2 1.6 WSW 3.2 0.0
11:10 3.3 74.0 1036.2 1.6 WSW 3.2 0.0
11:15 3.8 72.0 1036.0 1.6 WSW 4.8 0.0
11:20 3.9 69.0 1036.0 0.0 WSW 4.8 0.0
11:25 4.3 68.0 1035.9 3.2 WSW 4.8 0.0
11:30 4.7 65.0 1035.9 1.6 W 4.8 0.0
11:35 4.8 67.0 1035.8 1.6 W 4.8 0.0
11:40 5.4 65.0 1035.7 3.2 W 4.8 0.0
11:45 5.7 65.0 1035.6 0.0 WSW 4.8 0.0
11:50 5.8 64.0 1035.5 3.2 WNW 4.8 0.0
11:55 5.7 63.0 1035.4 0.0 WNW 4.8 0.0
12:00 6.3 63.0 1035.3 0.0 N 3.2 0.0
12:05 6.9 61.0 1035.3 1.6 N 4.8 0.0
12:10 7.4 60.0 1035.2 1.6 N 4.8 0.0
12:15 8.1 59.0 1035.0 0.0 N 4.8 0.0
12:20 8.1 58.0 1035.0 3.2 N 4.8 0.0
12:25 8.1 57.0 1034.9 0.0 N 4.8 0.0
12:30 8.3 57.0 1034.9 1.6 N 3.2 0.0
12:35 8.6 54.0 1034.8 1.6 N 4.8 0.0
12:40 8.9 54.0 1034.8 1.6 N 4.8 0.0
12:45 9.2 54.0 1034.7 1.6 N 4.8 0.0
12:50 9.4 54.0 1034.6 1.6 N 4.8 0.0
12:55 9.9 54.0 1034.5 1.6 N 4.8 0.0
13:00 10.3 53.0 1034.4 1.6 N 4.8 0.0
13:05 10.3 51.0 1034.3 4.8 N 4.8 0.0
13:10 10.7 53.0 1034.3 1.6 N 4.8 0.0
13:15 10.9 51.0 1034.2 1.6 N 4.8 0.0
13:20 10.9 52.0 1034.1 3.2 N 4.8 0.0
13:25 11.1 50.0 1033.9 0.0 N 4.8 0.0
13:30 11.3 50.0 1033.8 4.8 N 4.8 0.0
13:35 11.4 51.0 1033.7 3.2 N 4.8 0.0
13:40 12.1 49.0 1033.7 4.8 N 4.8 0.0
13:45 12.3 49.0 1033.6 3.2 N 4.8 0.0
13:50 11.8 49.0 1033.6 0.0 N 4.8 0.0
13:55 12.2 49.0 1033.5 1.6 N 6.4 0.0
14:00 12.3 48.0 1033.6 1.6 N 6.4 0.0
14:05 12.6 48.0 1033.5 3.2 N 4.8 0.0
14:10 12.7 47.0 1033.5 3.2 N 4.8 0.0
14:15 12.7 47.0 1033.4 3.2 N 4.8 0.0
14:20 12.9 46.0 1033.4 3.2 N 6.4 0.0
14:25 13.2 46.0 1033.5 3.2 N 6.4 0.0
14:30 13.1 46.0 1033.5 3.2 N 6.4 0.0
14:35 13.3 46.0 1033.5 4.8 N 4.8 0.0
14:40 13.2 45.0 1033.5 3.2 N 6.4 0.0
14:45 13.2 45.0 1033.5 0.0 N 6.4 0.0
14:50 13.3 45.0 1033.5 3.2 N 6.4 0.0
14:55 13.5 45.0 1033.5 1.6 N 6.4 0.0
15:00 13.4 45.0 1033.4 1.6 N 6.4 0.0
15:05 13.4 45.0 1033.5 3.2 N 6.4 0.0
15:10 13.3 45.0 1033.6 3.2 N 6.4 0.0
15:15 13.3 45.0 1033.5 0.0 N 8.0 0.0
15:20 13.3 46.0 1033.6 4.8 N 4.8 0.0
15:25 13.4 45.0 1033.6 1.6 N 4.8 0.0
15:30 13.3 45.0 1033.5 3.2 N 4.8 0.0
15:35 13.3 45.0 1033.5 1.6 N 4.8 0.0
15:40 13.2 45.0 1033.6 1.6 N 4.8 0.0
15:45 13.1 46.0 1033.5 0.0 N 4.8 0.0
15:50 13.1 45.0 1033.5 1.6 N 4.8 0.0
15:55 13.0 44.0 1033.5 3.2 N 4.8 0.0
16:00 12.9 45.0 1033.5 1.6 N 4.8 0.0
16:05 12.7 46.0 1033.6 0.0 N 3.2 0.0
16:10 12.6 45.0 1033.6 0.0 N 3.2 0.0
16:15 12.3 46.0 1033.6 0.0 N 3.2 0.0
16:20 12.4 45.0 1033.6 1.6 N 1.6 0.0
16:25 12.3 45.0 1033.6 1.6 N 3.2 0.0
16:30 11.9 47.0 1033.7 3.2 N 3.2 0.0
16:35 11.7 48.0 1033.6 1.6 N 3.2 0.0
16:40 11.4 48.0 1033.7 0.0 N 3.2 0.0
16:45 10.9 49.0 1033.7 0.0 N 1.6 0.0
16:50 10.4 51.0 1033.7 0.0 N 0.0 0.0
16:55 9.8 53.0 1033.8 0.0 N 3.2 0.0
17:00 9.1 54.0 1033.8 0.0 N 3.2 0.0
17:05 8.6 57.0 1034.0 3.2 N 3.2 0.0
17:10 8.2 58.0 1033.9 3.2 N 3.2 0.0
17:15 7.6 60.0 1034.0 3.2 N 4.8 0.0
17:20 7.1 62.0 1034.1 4.8 N 4.8 0.0
17:25 6.7 63.0 1033.9 3.2 N 4.8 0.0
17:30 6.1 65.0 1034.0 3.2 N 4.8 0.0
17:35 6.2 66.0 1034.1 6.4 N 8.0 0.0
17:40 7.1 66.0 1034.2 3.2 N 8.0 0.0
17:45 7.3 65.0 1034.3 3.2 N 8.0 0.0
17:50 7.3 65.0 1034.3 4.8 N 8.0 0.0
17:55 7.1 65.0 1034.3 3.2 N 8.0 0.0
Màxima 13.5 91.0 1037.1 6.4 N 8.0 0.0
Mínima -6.7 44.0 1033.4
Total 0.0